| time (UTC) | temp C | wind direction | speed KPH | gust KPH | rain 1hr cm | rain 24hr cm | rain mn cm | humidity % | barometer mb |
| 20260507213517 | 12 | 0 | 0.0 | 0.0 | 0.00 | 0.08 | 0.08 | 83 | 1017.0 |
| 20260507213018 | 12 | 0 | 0.0 | 0.0 | 0.00 | 0.08 | 0.08 | 83 | 1016.8 |
| 20260507212517 | 12 | 0 | 0.0 | 0.0 | 0.00 | 0.08 | 0.08 | 84 | 1016.9 |
| 20260507212016 | 12 | 0 | 0.0 | 0.0 | 0.00 | 0.08 | 0.08 | 84 | 1016.7 |
| 20260507211516 | 12 | 0 | 0.0 | 0.0 | 0.00 | 0.08 | 0.08 | 83 | 1016.8 |
| 20260507211018 | 12 | 0 | 0.0 | 0.0 | 0.00 | 0.08 | 0.08 | 83 | 1016.7 |
| 20260507210517 | 12 | 0 | 0.0 | 0.0 | 0.00 | 0.08 | 0.08 | 83 | 1016.6 |
| 20260507210017 | 12 | 0 | 0.0 | 0.0 | 0.00 | 0.08 | 0.08 | 83 | 1016.8 |
| 20260507205520 | 12 | 0 | 0.0 | 0.0 | 0.00 | 0.08 | 0.08 | 83 | 1016.8 |
| 20260507205016 | 12 | 0 | 0.0 | 0.0 | 0.00 | 0.08 | 0.08 | 83 | 1016.7 |
| 20260507204018 | 13 | 0 | 0.0 | 0.0 | 0.00 | 0.08 | 0.08 | 83 | 1016.7 |
| 20260507203516 | 13 | 0 | 0.0 | 0.0 | 0.00 | 0.08 | 0.08 | 84 | 1016.4 |
| 20260507203017 | 13 | 0 | 0.0 | 0.0 | 0.00 | 0.08 | 0.08 | 84 | 1016.5 |
| 20260507202518 | 13 | 0 | 0.0 | 0.0 | 0.00 | 0.08 | 0.08 | 85 | 1016.6 |
| 20260507202017 | 13 | 0 | 0.0 | 0.0 | 0.00 | 0.08 | 0.08 | 85 | 1016.3 |
| 20260507201519 | 13 | 0 | 0.0 | 0.0 | 0.00 | 0.08 | 0.08 | 86 | 1016.5 |
| 20260507201020 | 13 | 0 | 0.0 | 0.0 | 0.00 | 0.08 | 0.08 | 87 | 1016.4 |
| 20260507200517 | 13 | 0 | 0.0 | 0.0 | 0.00 | 0.08 | 0.08 | 88 | 1016.3 |
| 20260507200018 | 13 | 0 | 0.0 | 0.0 | 0.00 | 0.08 | 0.08 | 89 | 1016.3 |
| 20260507195518 | 13 | 0 | 0.0 | 0.0 | 0.00 | 0.08 | 0.08 | 90 | 1016.1 |
| 20260507195017 | 13 | 0 | 0.0 | 0.0 | 0.00 | 0.08 | 0.08 | 91 | 1016.1 |
| 20260507194519 | 13 | 0 | 0.0 | 0.0 | 0.00 | 0.08 | 0.08 | 91 | 1016.2 |
| 20260507194020 | 13 | 0 | 0.0 | 0.0 | 0.00 | 0.08 | 0.08 | 91 | 1016.1 |
| 20260507193516 | 13 | 0 | 0.0 | 0.0 | 0.00 | 0.08 | 0.08 | 91 | 1016.0 |
| 20260507193017 | 13 | 0 | 0.0 | 0.0 | 0.00 | 0.08 | 0.08 | 91 | 1016.0 |
| 20260507192519 | 13 | 0 | 0.0 | 0.0 | 0.00 | 0.08 | 0.08 | 90 | 1015.9 |
| 20260507192020 | 13 | 0 | 0.0 | 0.0 | 0.00 | 0.08 | 0.08 | 90 | 1015.9 |
| 20260507191516 | 13 | 0 | 0.0 | 0.0 | 0.00 | 0.08 | 0.08 | 90 | 1015.8 |
| 20260507191017 | 13 | 0 | 0.0 | 0.0 | 0.00 | 0.08 | 0.08 | 89 | 1015.7 |
| 20260507190520 | 14 | 0 | 0.0 | 0.0 | 0.00 | 0.08 | 0.08 | 89 | 1015.6 |
| 20260507190017 | 14 | 0 | 0.0 | 0.0 | 0.00 | 0.08 | 0.08 | 89 | 1015.6 |
| 20260507185017 | 14 | 0 | 0.0 | 0.0 | 0.00 | 0.08 | 0.08 | 87 | 1015.3 |
| 20260507184517 | 14 | 0 | 0.0 | 0.0 | 0.00 | 0.08 | 0.08 | 87 | 1015.2 |
| 20260507184020 | 14 | 0 | 0.0 | 0.0 | 0.00 | 0.08 | 0.08 | 86 | 1015.3 |
| 20260507183516 | 15 | 0 | 0.0 | 0.0 | 0.00 | 0.08 | 0.08 | 86 | 1015.2 |
| 20260507181519 | 15 | 81 | 0.0 | 3.2 | 0.00 | 0.08 | 0.08 | 84 | 1015.0 |
| 20260507181017 | 15 | 79 | 0.0 | 3.2 | 0.00 | 0.08 | 0.08 | 84 | 1015.0 |
| 20260507180516 | 15 | 81 | 1.6 | 8.0 | 0.00 | 0.08 | 0.08 | 83 | 1014.9 |
| 20260507180018 | 15 | 73 | 3.2 | 8.0 | 0.00 | 0.08 | 0.08 | 83 | 1014.9 |
| 20260507175516 | 15 | 57 | 3.2 | 12.9 | 0.00 | 0.08 | 0.08 | 82 | 1014.9 |
| 20260507175017 | 15 | 55 | 4.8 | 12.9 | 0.00 | 0.08 | 0.08 | 83 | 1014.9 |
| 20260507174520 | 15 | 61 | 4.8 | 12.9 | 0.00 | 0.08 | 0.08 | 82 | 1014.8 |
| 20260507173517 | 16 | 62 | 3.2 | 12.9 | 0.00 | 0.08 | 0.08 | 83 | 1014.8 |
| 20260507173020 | 16 | 67 | 4.8 | 12.9 | 0.00 | 0.08 | 0.08 | 82 | 1014.8 |
| 20260507172516 | 16 | 74 | 3.2 | 12.9 | 0.00 | 0.08 | 0.08 | 76 | 1014.9 |
| 20260507172017 | 16 | 62 | 3.2 | 9.7 | 0.00 | 0.08 | 0.08 | 78 | 1014.7 |
| 20260507171516 | 16 | 70 | 3.2 | 9.7 | 0.00 | 0.08 | 0.08 | 80 | 1014.7 |
| 20260507171017 | 16 | 85 | 3.2 | 9.7 | 0.00 | 0.08 | 0.08 | 79 | 1014.8 |
| 20260507170517 | 16 | 82 | 4.8 | 12.9 | 0.00 | 0.08 | 0.08 | 77 | 1014.6 |
| 20260507170017 | 16 | 84 | 4.8 | 12.9 | 0.00 | 0.08 | 0.08 | 77 | 1014.8 |
| 20260507165516 | 17 | 82 | 3.2 | 9.7 | 0.00 | 0.08 | 0.08 | 79 | 1014.8 |
| 20260507165018 | 16 | 78 | 3.2 | 9.7 | 0.00 | 0.08 | 0.08 | 78 | 1014.8 |
| 20260507164516 | 16 | 75 | 1.6 | 9.7 | 0.00 | 0.08 | 0.08 | 78 | 1014.9 |
| 20260507164017 | 16 | 77 | 0.0 | 9.7 | 0.03 | 0.08 | 0.08 | 75 | 1014.6 |
| 20260507163519 | 16 | 47 | 0.0 | 4.8 | 0.03 | 0.08 | 0.08 | 80 | 1014.5 |
| 20260507163017 | 17 | 60 | 1.6 | 12.9 | 0.03 | 0.08 | 0.08 | 76 | 1014.7 |
| 20260507161017 | 16 | 60 | 4.8 | 12.9 | 0.08 | 0.08 | 0.08 | 81 | 1014.5 |
| 20260507160519 | 16 | 76 | 4.8 | 12.9 | 0.08 | 0.08 | 0.08 | 83 | 1014.6 |
| 20260507160021 | 16 | 81 | 3.2 | 9.7 | 0.08 | 0.08 | 0.08 | 83 | 1014.9 |
| 20260507155516 | 16 | 70 | 3.2 | 9.7 | 0.08 | 0.08 | 0.08 | 83 | 1014.6 |
| 20260507155017 | 16 | 71 | 0.0 | 9.7 | 0.08 | 0.10 | 0.08 | 85 | 1014.3 |
| 20260507154516 | 15 | 68 | 0.0 | 3.2 | 0.08 | 0.10 | 0.08 | 87 | 1014.4 |
| 20260507154021 | 15 | 14 | 0.0 | 4.8 | 0.05 | 0.10 | 0.05 | 85 | 1014.2 |
| 20260507153519 | 16 | 317 | 1.6 | 8.0 | 0.05 | 0.15 | 0.05 | 82 | 1014.4 |
| 20260507152517 | 17 | 281 | 0.0 | 8.0 | 0.03 | 0.15 | 0.03 | 75 | 1014.1 |
| 20260507152020 | 17 | 261 | 1.6 | 8.0 | 0.00 | 0.15 | 0.00 | 72 | 1014.1 |
| 20260507151516 | 18 | 245 | 3.2 | 9.7 | 0.00 | 0.18 | 0.00 | 67 | 1014.0 |
| 20260507151017 | 18 | 234 | 3.2 | 12.9 | 0.00 | 0.18 | 0.00 | 64 | 1013.9 |
| 20260507150520 | 18 | 247 | 3.2 | 12.9 | 0.00 | 0.18 | 0.00 | 65 | 1013.8 |
| 20260507150016 | 18 | 252 | 3.2 | 9.7 | 0.00 | 0.18 | 0.00 | 65 | 1013.6 |
| 20260507145517 | 18 | 245 | 4.8 | 12.9 | 0.00 | 0.18 | 0.00 | 65 | 1013.9 |
| 20260507145017 | 18 | 251 | 4.8 | 12.9 | 0.00 | 0.18 | 0.00 | 64 | 1013.7 |
| 20260507144516 | 18 | 256 | 3.2 | 9.7 | 0.00 | 0.18 | 0.00 | 63 | 1013.3 |
| 20260507144020 | 19 | 259 | 3.2 | 12.9 | 0.00 | 0.18 | 0.00 | 63 | 1013.1 |
| 20260507143516 | 19 | 259 | 4.8 | 12.9 | 0.00 | 0.18 | 0.00 | 62 | 1013.1 |
| 20260507143016 | 20 | 254 | 4.8 | 14.5 | 0.00 | 0.18 | 0.00 | 61 | 1013.2 |
| 20260507142520 | 20 | 243 | 4.8 | 14.5 | 0.00 | 0.18 | 0.00 | 57 | 1013.4 |
| 20260507142020 | 21 | 237 | 4.8 | 14.5 | 0.00 | 0.18 | 0.00 | 55 | 1013.5 |
| 20260507141517 | 21 | 238 | 4.8 | 14.5 | 0.00 | 0.18 | 0.00 | 54 | 1013.3 |
| 20260507141017 | 21 | 241 | 3.2 | 14.5 | 0.00 | 0.18 | 0.00 | 56 | 1013.2 |
| 20260507140020 | 20 | 257 | 3.2 | 9.7 | 0.00 | 0.18 | 0.00 | 65 | 1013.3 |
| 20260507135516 | 20 | 287 | 3.2 | 9.7 | 0.00 | 0.18 | 0.00 | 61 | 1013.3 |
| 20260507135019 | 20 | 243 | 3.2 | 12.9 | 0.00 | 0.18 | 0.00 | 62 | 1013.1 |
| 20260507134515 | 21 | 233 | 3.2 | 14.5 | 0.00 | 0.18 | 0.00 | 60 | 1013.3 |
| 20260507133516 | 23 | 276 | 3.2 | 12.9 | 0.00 | 0.18 | 0.00 | 55 | 1013.1 |
| 20260507133017 | 23 | 284 | 4.8 | 16.1 | 0.00 | 0.18 | 0.00 | 58 | 1013.2 |
| 20260507132516 | 23 | 297 | 4.8 | 16.1 | 0.00 | 0.18 | 0.00 | 57 | 1013.3 |
| 20260507132020 | 23 | 274 | 4.8 | 17.7 | 0.00 | 0.20 | 0.00 | 54 | 1013.2 |
| 20260507131517 | 23 | 262 | 4.8 | 17.7 | 0.00 | 0.20 | 0.00 | 49 | 1013.4 |
| 20260507131017 | 23 | 256 | 4.8 | 12.9 | 0.00 | 0.20 | 0.00 | 48 | 1013.3 |
| 20260507130517 | 23 | 261 | 3.2 | 12.9 | 0.00 | 0.20 | 0.00 | 48 | 1013.4 |
| 20260507130018 | 23 | 250 | 4.8 | 12.9 | 0.00 | 0.20 | 0.00 | 45 | 1013.3 |
| 20260507125516 | 23 | 241 | 4.8 | 12.9 | 0.00 | 0.20 | 0.00 | 48 | 1013.2 |
| 20260507125016 | 23 | 250 | 3.2 | 12.9 | 0.00 | 0.20 | 0.00 | 49 | 1013.2 |
| 20260507124519 | 23 | 250 | 4.8 | 12.9 | 0.00 | 0.20 | 0.00 | 48 | 1013.2 |
| 20260507124016 | 23 | 239 | 4.8 | 12.9 | 0.00 | 0.20 | 0.00 | 53 | 1013.2 |
| 20260507123516 | 23 | 244 | 4.8 | 12.9 | 0.00 | 0.20 | 0.00 | 52 | 1013.3 |
| 20260507123019 | 23 | 252 | 4.8 | 12.9 | 0.00 | 0.20 | 0.00 | 52 | 1013.4 |
| 20260507122516 | 23 | 254 | 4.8 | 12.9 | 0.00 | 0.20 | 0.00 | 52 | 1013.3 |
| 20260507121517 | 23 | 118 | 3.2 | 14.5 | 0.00 | 0.20 | 0.00 | 54 | 1013.3 |
| 20260507120516 | 22 | 81 | 3.2 | 9.7 | 0.00 | 0.20 | 0.00 | 55 | 1013.3 |
| 20260507120019 | 23 | 230 | 3.2 | 9.7 | 0.00 | 0.20 | 0.00 | 52 | 1013.4 |
| 20260507115516 | 23 | 237 | 3.2 | 9.7 | 0.00 | 0.20 | 0.00 | 52 | 1013.5 |
| 20260507115017 | 22 | 234 | 3.2 | 12.9 | 0.00 | 0.20 | 0.00 | 55 | 1013.4 |
| 20260507114019 | 22 | 292 | 1.6 | 4.8 | 0.00 | 0.20 | 0.00 | 54 | 1013.4 |
| 20260507112520 | 22 | 250 | 0.0 | 4.8 | 0.00 | 0.20 | 0.00 | 57 | 1013.6 |
| 20260507111519 | 23 | 252 | 1.6 | 8.0 | 0.00 | 0.23 | 0.00 | 55 | 1013.6 |
| 20260507111017 | 22 | 261 | 3.2 | 8.0 | 0.00 | 0.23 | 0.00 | 54 | 1013.6 |
| 20260507110517 | 22 | 261 | 3.2 | 12.9 | 0.00 | 0.23 | 0.00 | 52 | 1013.7 |
| 20260507110019 | 22 | 241 | 3.2 | 12.9 | 0.00 | 0.23 | 0.00 | 55 | 1013.7 |
| 20260507105516 | 22 | 94 | 3.2 | 14.5 | 0.00 | 0.23 | 0.00 | 58 | 1013.9 |
| 20260507105016 | 22 | 76 | 1.6 | 14.5 | 0.00 | 0.23 | 0.00 | 61 | 1013.8 |
| 20260507104518 | 22 | 59 | 1.6 | 9.7 | 0.00 | 0.23 | 0.00 | 56 | 1013.9 |
| 20260507104016 | 22 | 256 | 3.2 | 9.7 | 0.00 | 0.23 | 0.00 | 62 | 1014.1 |
| 20260507103517 | 22 | 247 | 3.2 | 9.7 | 0.00 | 0.25 | 0.00 | 61 | 1014.1 |
| 20260507103017 | 21 | 222 | 1.6 | 4.8 | 0.00 | 0.25 | 0.00 | 64 | 1014.3 |
| 20260507102516 | 20 | 242 | 1.6 | 8.0 | 0.00 | 0.25 | 0.00 | 67 | 1014.2 |
| 20260507102016 | 20 | 263 | 3.2 | 8.0 | 0.00 | 0.25 | 0.00 | 66 | 1014.2 |
| 20260507101517 | 22 | 260 | 1.6 | 12.9 | 0.00 | 0.28 | 0.00 | 63 | 1014.3 |
| 20260507101016 | 22 | 241 | 1.6 | 12.9 | 0.00 | 0.33 | 0.00 | 60 | 1014.3 |
| 20260507100516 | 22 | 246 | 1.6 | 9.7 | 0.00 | 0.33 | 0.00 | 64 | 1014.3 |
| 20260507100017 | 22 | 306 | 1.6 | 9.7 | 0.00 | 0.33 | 0.00 | 64 | 1014.2 |
| 20260507095516 | 21 | 340 | 1.6 | 8.0 | 0.00 | 0.33 | 0.00 | 64 | 1014.2 |
| 20260507095017 | 21 | 217 | 3.2 | 9.7 | 0.00 | 0.33 | 0.00 | 63 | 1014.5 |
| 20260507094516 | 21 | 214 | 1.6 | 9.7 | 0.00 | 0.33 | 0.00 | 66 | 1014.1 |
| 20260507094016 | 20 | 203 | 1.6 | 8.0 | 0.00 | 0.33 | 0.00 | 71 | 1014.0 |
| 20260507092516 | 20 | 250 | 3.2 | 8.0 | 0.00 | 0.36 | 0.00 | 70 | 1013.9 |
| 20260507091516 | 19 | 246 | 1.6 | 9.7 | 0.00 | 0.36 | 0.00 | 72 | 1013.9 |
| 20260507091016 | 20 | 235 | 1.6 | 9.7 | 0.00 | 0.36 | 0.00 | 71 | 1014.1 |
| 20260507090516 | 20 | 236 | 3.2 | 9.7 | 0.00 | 0.36 | 0.00 | 69 | 1014.2 |
| 20260507085515 | 20 | 260 | 3.2 | 9.7 | 0.00 | 0.36 | 0.00 | 72 | 1014.1 |
| 20260507085020 | 20 | 229 | 1.6 | 8.0 | 0.00 | 0.36 | 0.00 | 70 | 1013.9 |
| 20260507084517 | 18 | 122 | 1.6 | 8.0 | 0.00 | 0.36 | 0.00 | 75 | 1013.9 |
| 20260507083516 | 19 | 85 | 1.6 | 4.8 | 0.00 | 0.36 | 0.00 | 73 | 1014.1 |
| 20260507083019 | 20 | 90 | 1.6 | 8.0 | 0.00 | 0.36 | 0.00 | 71 | 1014.1 |
| 20260507082516 | 19 | 73 | 1.6 | 8.0 | 0.00 | 0.36 | 0.00 | 72 | 1013.8 |
| 20260507082016 | 18 | 79 | 1.6 | 8.0 | 0.00 | 0.36 | 0.00 | 74 | 1014.1 |
| 20260507081516 | 18 | 71 | 1.6 | 8.0 | 0.00 | 0.36 | 0.00 | 72 | 1014.0 |
| 20260507081019 | 19 | 47 | 1.6 | 9.7 | 0.00 | 0.36 | 0.00 | 73 | 1013.9 |
| 20260507080516 | 18 | 21 | 1.6 | 9.7 | 0.00 | 0.36 | 0.00 | 75 | 1014.0 |
| 20260507080017 | 17 | 231 | 0.0 | 4.8 | 0.00 | 0.36 | 0.00 | 82 | 1014.0 |
| 20260507075518 | 18 | 148 | 0.0 | 4.8 | 0.00 | 0.36 | 0.00 | 79 | 1014.0 |
| 20260507075016 | 18 | 78 | 1.6 | 8.0 | 0.00 | 0.41 | 0.00 | 77 | 1013.9 |
| 20260507074516 | 18 | 75 | 1.6 | 8.0 | 0.00 | 0.41 | 0.00 | 76 | 1013.9 |
| 20260507074017 | 17 | 209 | 0.0 | 4.8 | 0.00 | 0.41 | 0.00 | 84 | 1013.7 |
| 20260507073516 | 17 | 131 | 1.6 | 8.0 | 0.00 | 0.41 | 0.00 | 83 | 1013.7 |
| 20260507073016 | 17 | 79 | 1.6 | 8.0 | 0.00 | 0.41 | 0.00 | 81 | 1013.9 |
| 20260507072517 | 18 | 82 | 0.0 | 8.0 | 0.00 | 0.41 | 0.00 | 80 | 1013.9 |
| 20260507072015 | 18 | 0 | 0.0 | 0.0 | 0.00 | 0.43 | 0.00 | 82 | 1013.6 |
| 20260507071517 | 17 | 0 | 0.0 | 0.0 | 0.00 | 0.43 | 0.00 | 85 | 1013.8 |
| 20260507071017 | 17 | 52 | 0.0 | 4.8 | 0.00 | 0.43 | 0.00 | 83 | 1013.8 |
| 20260507070516 | 17 | 77 | 1.6 | 4.8 | 0.00 | 0.43 | 0.00 | 84 | 1013.6 |
| 20260507070016 | 17 | 84 | 1.6 | 4.8 | 0.00 | 0.43 | 0.00 | 84 | 1013.7 |
| 20260507063016 | 16 | 54 | 0.0 | 4.8 | 0.00 | 0.43 | 0.00 | 99 | 1013.5 |
| 20260507062016 | 15 | 22 | 0.0 | 4.8 | 0.00 | 0.53 | 0.00 | 99 | 1013.6 |
| 20260507061516 | 15 | 0 | 0.0 | 0.0 | 0.00 | 0.56 | 0.00 | 99 | 1013.4 |
| 20260507061018 | 15 | 68 | 0.0 | 4.8 | 0.00 | 0.61 | 0.00 | 99 | 1013.4 |
| 20260507060516 | 14 | 47 | 0.0 | 4.8 | 0.00 | 0.71 | 0.00 | 99 | 1013.3 |
| 20260507060016 | 14 | 58 | 0.0 | 4.8 | 0.00 | 0.74 | 0.00 | 98 | 1013.2 |
| 20260507055519 | 13 | 68 | 0.0 | 4.8 | 0.00 | 0.79 | 0.00 | 98 | 1013.4 |
| 20260507055016 | 13 | 68 | 0.0 | 4.8 | 0.00 | 0.86 | 0.00 | 98 | 1013.3 |
| 20260507054516 | 13 | 68 | 0.0 | 4.8 | 0.00 | 1.02 | 0.00 | 98 | 1013.2 |
| 20260507054016 | 13 | 63 | 0.0 | 4.8 | 0.00 | 1.07 | 0.00 | 98 | 1013.1 |
| 20260507053516 | 13 | 75 | 0.0 | 4.8 | 0.00 | 1.07 | 0.00 | 98 | 1013.0 |
| 20260507053016 | 13 | 86 | 0.0 | 4.8 | 0.00 | 1.07 | 0.00 | 98 | 1012.9 |
| 20260507052515 | 13 | 73 | 0.0 | 8.0 | 0.00 | 1.07 | 0.00 | 98 | 1012.9 |
| 20260507052016 | 13 | 73 | 0.0 | 8.0 | 0.00 | 1.07 | 0.00 | 98 | 1013.1 |
| 20260507051516 | 13 | 74 | 0.0 | 4.8 | 0.00 | 1.07 | 0.00 | 98 | 1013.0 |
| 20260507051016 | 13 | 72 | 0.0 | 4.8 | 0.00 | 1.07 | 0.00 | 98 | 1012.7 |
| 20260507050516 | 13 | 68 | 0.0 | 3.2 | 0.00 | 1.07 | 0.00 | 98 | 1012.7 |
| 20260507050018 | 13 | 0 | 0.0 | 0.0 | 0.00 | 1.07 | 0.00 | 98 | 1012.7 |
| 20260507045515 | 13 | 0 | 0.0 | 0.0 | 0.00 | 1.07 | 0.00 | 98 | 1012.7 |
| 20260507045015 | 13 | 0 | 0.0 | 0.0 | 0.00 | 1.07 | 0.00 | 98 | 1012.4 |
| 20260507044517 | 13 | 0 | 0.0 | 0.0 | 0.00 | 1.07 | 0.00 | 98 | 1012.5 |
| 20260507044016 | 12 | 0 | 0.0 | 0.0 | 0.00 | 1.07 | 0.00 | 98 | 1012.2 |
| 20260507043516 | 12 | 0 | 0.0 | 0.0 | 0.00 | 1.07 | 0.00 | 98 | 1012.3 |
| 20260507043016 | 12 | 0 | 0.0 | 0.0 | 0.00 | 1.07 | 0.00 | 98 | 1012.3 |
| 20260507042515 | 12 | 0 | 0.0 | 0.0 | 0.00 | 1.07 | 0.00 | 98 | 1012.2 |
| 20260507042015 | 12 | 0 | 0.0 | 0.0 | 0.00 | 1.07 | 0.00 | 98 | 1012.2 |
| 20260507041016 | 12 | 0 | 0.0 | 0.0 | 0.00 | 1.07 | 0.00 | 98 | 1012.0 |
| 20260507035519 | 12 | 0 | 0.0 | 0.0 | 0.00 | 1.07 | 0.00 | 98 | 1012.2 |
| 20260507035016 | 12 | 0 | 0.0 | 0.0 | 0.00 | 1.07 | 0.00 | 98 | 1012.1 |
| 20260507034515 | 12 | 0 | 0.0 | 0.0 | 0.00 | 1.07 | 0.00 | 98 | 1011.9 |
| 20260507034017 | 12 | 0 | 0.0 | 0.0 | 0.00 | 1.07 | 0.00 | 98 | 1012.0 |
| 20260507033516 | 12 | 0 | 0.0 | 0.0 | 0.00 | 1.07 | 0.00 | 98 | 1012.1 |
| 20260507033016 | 12 | 0 | 0.0 | 0.0 | 0.00 | 1.07 | 0.00 | 98 | 1012.0 |
| 20260507032515 | 12 | 0 | 0.0 | 0.0 | 0.00 | 1.07 | 0.00 | 98 | 1012.2 |
| 20260507032015 | 12 | 0 | 0.0 | 0.0 | 0.00 | 1.07 | 0.00 | 98 | 1011.9 |
| 20260507031018 | 12 | 0 | 0.0 | 0.0 | 0.00 | 1.07 | 0.00 | 98 | 1012.0 |
| 20260507030519 | 13 | 0 | 0.0 | 0.0 | 0.00 | 1.07 | 0.00 | 98 | 1012.2 |
| 20260507030016 | 13 | 0 | 0.0 | 0.0 | 0.00 | 1.07 | 0.00 | 98 | 1012.0 |
| 20260507025016 | 13 | 0 | 0.0 | 0.0 | 0.00 | 1.07 | 0.00 | 98 | 1012.0 |
| 20260507024518 | 13 | 0 | 0.0 | 0.0 | 0.00 | 1.07 | 0.00 | 97 | 1012.0 |
| 20260507024015 | 13 | 0 | 0.0 | 0.0 | 0.00 | 1.07 | 0.00 | 97 | 1012.2 |
| 20260507023516 | 13 | 0 | 0.0 | 0.0 | 0.00 | 1.07 | 0.00 | 97 | 1011.9 |
| 20260507023016 | 13 | 0 | 0.0 | 0.0 | 0.00 | 1.07 | 0.00 | 97 | 1012.1 |
| 20260507022517 | 13 | 0 | 0.0 | 0.0 | 0.00 | 1.07 | 0.00 | 97 | 1012.0 |
| 20260507022015 | 13 | 0 | 0.0 | 0.0 | 0.00 | 1.07 | 0.00 | 97 | 1011.9 |
| 20260507021515 | 13 | 0 | 0.0 | 0.0 | 0.00 | 1.07 | 0.00 | 97 | 1012.0 |
| 20260507021016 | 13 | 0 | 0.0 | 0.0 | 0.00 | 1.07 | 0.00 | 97 | 1011.9 |
| 20260507020015 | 13 | 0 | 0.0 | 0.0 | 0.00 | 1.07 | 0.00 | 97 | 1011.8 |
| 20260507015516 | 14 | 0 | 0.0 | 0.0 | 0.00 | 1.07 | 0.00 | 97 | 1011.7 |
| 20260507015017 | 14 | 0 | 0.0 | 0.0 | 0.00 | 1.07 | 0.00 | 97 | 1012.0 |
| 20260507014515 | 13 | 0 | 0.0 | 0.0 | 0.00 | 1.07 | 0.00 | 97 | 1012.0 |
| 20260507014015 | 13 | 0 | 0.0 | 0.0 | 0.00 | 1.07 | 0.00 | 97 | 1011.9 |
| 20260507013516 | 13 | 0 | 0.0 | 0.0 | 0.00 | 1.07 | 0.00 | 97 | 1012.1 |
| 20260507013016 | 14 | 0 | 0.0 | 0.0 | 0.00 | 1.07 | 0.00 | 97 | 1012.0 |
| 20260507012515 | 14 | 0 | 0.0 | 0.0 | 0.00 | 1.07 | 0.00 | 97 | 1011.9 |
| 20260507012015 | 14 | 0 | 0.0 | 0.0 | 0.00 | 1.07 | 0.00 | 97 | 1012.0 |
| 20260507011517 | 14 | 0 | 0.0 | 0.0 | 0.00 | 1.07 | 0.00 | 97 | 1012.2 |
| 20260507010515 | 14 | 0 | 0.0 | 0.0 | 0.00 | 1.07 | 0.00 | 97 | 1011.9 |
| 20260507005518 | 14 | 0 | 0.0 | 0.0 | 0.00 | 1.07 | 0.00 | 97 | 1012.0 |
| 20260507005015 | 14 | 0 | 0.0 | 0.0 | 0.00 | 1.07 | 0.00 | 97 | 1012.0 |
| 20260507004515 | 14 | 0 | 0.0 | 0.0 | 0.00 | 1.07 | 0.00 | 96 | 1011.9 |
| 20260507004019 | 14 | 0 | 0.0 | 0.0 | 0.00 | 1.07 | 0.00 | 96 | 1012.0 |
| 20260507003515 | 14 | 0 | 0.0 | 0.0 | 0.00 | 1.07 | 0.00 | 96 | 1011.8 |
| 20260507003016 | 14 | 0 | 0.0 | 0.0 | 0.00 | 1.07 | 0.00 | 96 | 1012.0 |
| 20260507002518 | 14 | 0 | 0.0 | 0.0 | 0.00 | 1.07 | 0.00 | 96 | 1012.2 |
| 20260507002015 | 14 | 0 | 0.0 | 0.0 | 0.00 | 1.07 | 0.00 | 96 | 1012.0 |
| 20260507001519 | 15 | 0 | 0.0 | 0.0 | 0.00 | 1.07 | 0.00 | 96 | 1012.0 |
| 20260507001018 | 15 | 0 | 0.0 | 0.0 | 0.00 | 1.07 | 0.00 | 96 | 1011.9 |
| 20260507000516 | 15 | 0 | 0.0 | 0.0 | 0.00 | 1.07 | 0.00 | 96 | 1012.2 |
| 20260507000016 | 15 | 0 | 0.0 | 0.0 | 0.00 | 1.07 | 0.00 | 96 | 1012.2 |
| 20260506235517 | 15 | 0 | 0.0 | 0.0 | 0.00 | 1.07 | 0.00 | 96 | 1012.0 |
| 20260506234518 | 15 | 0 | 0.0 | 0.0 | 0.00 | 1.07 | 0.00 | 96 | 1012.3 |
| 20260506234015 | 15 | 0 | 0.0 | 0.0 | 0.00 | 1.07 | 0.00 | 96 | 1012.2 |
| 20260506233515 | 15 | 68 | 0.0 | 3.2 | 0.00 | 1.07 | 0.00 | 96 | 1012.1 |
| 20260506233019 | 15 | 75 | 0.0 | 3.2 | 0.00 | 1.07 | 0.00 | 96 | 1012.3 |
| 20260506232515 | 15 | 75 | 0.0 | 3.2 | 0.00 | 1.07 | 0.00 | 96 | 1012.2 |
| 20260506232016 | 15 | 0 | 0.0 | 0.0 | 0.00 | 1.07 | 0.00 | 96 | 1012.2 |
| 20260506231518 | 15 | 0 | 0.0 | 0.0 | 0.00 | 1.07 | 0.00 | 96 | 1012.2 |
| 20260506231015 | 15 | 0 | 0.0 | 0.0 | 0.00 | 1.07 | 0.00 | 96 | 1012.2 |
| 20260506230514 | 14 | 90 | 0.0 | 3.2 | 0.00 | 1.07 | 0.00 | 96 | 1012.3 |
| 20260506225516 | 14 | 0 | 0.0 | 0.0 | 0.00 | 1.07 | 0.00 | 95 | 1012.3 |
| 20260506224518 | 14 | 0 | 0.0 | 0.0 | 0.00 | 1.07 | 0.00 | 95 | 1012.3 |
| 20260506224015 | 14 | 0 | 0.0 | 0.0 | 0.00 | 1.07 | 0.00 | 95 | 1012.5 |
| 20260506223515 | 14 | 0 | 0.0 | 0.0 | 0.00 | 1.07 | 0.00 | 95 | 1012.5 |
| 20260506223018 | 14 | 0 | 0.0 | 0.0 | 0.00 | 1.07 | 0.00 | 95 | 1012.2 |
| 20260506222515 | 14 | 90 | 0.0 | 3.2 | 0.00 | 1.07 | 0.00 | 95 | 1012.3 |
| 20260506222016 | 14 | 86 | 0.0 | 3.2 | 0.00 | 1.07 | 0.00 | 95 | 1012.2 |
| 20260506221517 | 14 | 78 | 0.0 | 3.2 | 0.00 | 1.07 | 0.00 | 95 | 1012.3 |
| 20260506221015 | 14 | 68 | 0.0 | 3.2 | 0.00 | 1.07 | 0.00 | 95 | 1012.2 |
| 20260506220515 | 14 | 0 | 0.0 | 0.0 | 0.00 | 1.07 | 0.00 | 96 | 1012.2 |
| 20260506220028 | 14 | 0 | 0.0 | 0.0 | 0.00 | 1.07 | 0.00 | 96 | 1012.3 |
| 20260506215514 | 14 | 0 | 0.0 | 0.0 | 0.00 | 1.07 | 1.07 | 96 | 1012.3 |
| 20260506215015 | 14 | 0 | 0.0 | 0.0 | 0.00 | 1.07 | 1.07 | 96 | 1012.4 |
| 20260506214516 | 14 | 0 | 0.0 | 0.0 | 0.00 | 1.07 | 1.07 | 96 | 1012.2 |
| 20260506214016 | 14 | 0 | 0.0 | 0.0 | 0.00 | 1.07 | 1.07 | 96 | 1012.5 |